Regional Weather Roundup
Issued by NWS Memphis, TN

Home | Current Version | Previous Version | Text Only | Print | Product List | Glossary On
Versions: 1 2 3 4 5 6 7 8 9 10 11 12 13 14 15 16 17 18 19 20 21 22 23 24 25 26 27 28 29 30 31 32 33 34 35 36 37 38 39 40 41 42 43 44 45 46 47 48 49 50
000
ASUS44 KMEG 260210
RWRMEG
MEMPHIS CWA HOURLY WEATHER ROUNDUP
NATIONAL WEATHER SERVICE MEMPHIS TN
900 PM CDT SAT APR 25 2015

...WEST TENNESSEE...

CITY           SKY/WX    TMP DP  RH WIND       PRES   REMARKS
MEMPHIS INTL   CLEAR     74  60  61 SW6       29.58R
NWS MEMPHIS      N/A     72 N/A N/A MISG        N/A
JACKSON        CLEAR     69  57  65 SW6       29.57R
LEXINGTON      CLEAR     72  55  56 SW6       29.56R
SAVANNAH       CLEAR     70  32  24 SW3       29.59R
DYERSBURG      MOCLDY    73  52  46 SW9G17    29.56R
UNION CITY     PTCLDY    70  32  24 SW6       29.54R
PARIS          CLEAR     70  55  60 SW10      29.55R


...EASTERN ARKANSAS...

CITY           SKY/WX    TMP DP  RH WIND       PRES   REMARKS
JONESBORO      PTCLDY    66  58  75 W5        29.56R
WEST MEMPHIS   CLEAR     72  63  73 SW3       29.56R
BATESVILLE     CLEAR     72  52  49 W9        29.58R
NEWPORT        CLEAR     72  55  54 SW9       29.58R
WALNUT RIDGE   CLEAR     73  54  49 W5        29.56R
BLYTHEVILLE    PTCLDY    71  64  78 SW10      29.56R
SEARCY         CLEAR     72  54  53 W3        29.60R
STUTTGART      CLEAR     72  55  56 SW10      29.60R
PINE BLUFF     CLEAR     73  54  51 SW6       29.62R
MONTICELLO     CLEAR     72  56  57 W5        29.63R


...NORTH MISSISSIPPI...

CITY           SKY/WX    TMP DP  RH WIND       PRES   REMARKS
TUPELO         CLEAR     72  66  81 SW7       29.60R
OXFORD         CLEAR     72  68  88 SW6       29.63R
OLIVE BRANCH   CLEAR     68  64  88 SW6       29.59R
TUNICA         CLEAR     70  63  78 SW7       29.60R
CLARKSDALE     CLEAR     75  63  64 SW8       29.61R
CORINTH        CLEAR     73  64  73 SW6       29.58R
GREENWOOD      CLEAR     73  67  81 SW10      29.62S
COLUMBUS       CLEAR     71  66  85 SW7       29.62S
STARKVILLE     FAIR      70  64  83 SW5       29.64R
GOLDEN TRIANGL CLEAR     72  64  78 SW7       29.63S


...SOUTHEAST MISSOURI...

CITY           SKY/WX    TMP DP  RH WIND       PRES   REMARKS
WEST PLAINS    CLOUDY    68  51  54 W5        29.62R
POPLAR BLUFF   CLOUDY    72  52  49 N8        29.56R
CAPE GIRARDEAU CLOUDY    65  58  78 N7        29.58R


...NORTHWEST ALABAMA...

CITY           SKY/WX    TMP DP  RH WIND       PRES   REMARKS
MUSCLE SHOALS  CLEAR     71  65  81 SW8       29.59R


...MIDDLE TENNESSEE...

CITY           SKY/WX    TMP DP  RH WIND       PRES   REMARKS
NASHVILLE      PTCLDY    74  63  68 SW5       29.54R
CLARKSVILLE    TSTM      62  60  93 N8        29.58R
COLUMBIA       CLEAR     72  32  23 SW8       29.55R


...WESTERN KENTUCKY...

CITY           SKY/WX    TMP DP  RH WIND       PRES   REMARKS
PADUCAH        MOCLDY    62  58  86 NE3       29.57R
FORT CAMPBELL  LGT RAIN  61  59  94 N10       29.57R


...CENTRAL ARKANSAS...

CITY           SKY/WX    TMP DP  RH WIND       PRES   REMARKS
LITTLE ROCK    CLEAR     75  50  41 SW6       29.60R


SKY/WX REPORTED AS FAIR MEANS FEW OR NO CLOUDS BELOW
12 THOUSAND FEET.




USA.gov is the U.S. government's official web portal to all federal, state and local government web resources and services.